Home   Weather   Providence   Past weeks

Flag for USA Past Weather in Providence, Rhode Island, USA — Yesterday and Last 2 Weeks

50 °F

Passing clouds.

Feels Like: 44 °F
Forecast: 41 / 56 °F
Wind: 16 mph from West

Location: Green State Airport

Current Time: Oct 23, 2016 at 10:23:31 AM

Latest Report: Oct 23, 2016 at 9:51 AM

Visibility: 10 mi

Pressure: 29.67 "Hg

Humidity: 48%

Dew Point: 31 °F

Location of ProvidenceLocation

Past Weather in Providence — Graph


Providence Temperature Yesterday

Maximum temperature yesterday: 66 °F (at 12:51 AM)
Minimum temperature yesterday: 44 °F (at 7:51 PM)
Average temperature yesterday: 57 °F

High & Low Weather Summary for the Past Weeks

High82 °F (Oct 19, 2:51 PM)100% (Oct 21, 4:51 AM)30.49 "Hg (Oct 21, 4:51 AM)
Low37 °F (Oct 15, 3:51 AM)30% (Oct 10, 3:51 PM)29.22 "Hg (Oct 22, 12:03 PM)
Average58 °F74%30.04 "Hg
* Reported Oct 8 8:04 AM — Oct 23 8:51 AM, Providence, Weather by CustomWeather, © 2016

Note: Actual official high and low records may vary slightly from our data, if they occured in-between our weather recording intervals... More about our weather records


Providence Weather History for the Previous 24 Hours

Scroll right to see more
Time TempWeatherWind HumidityBarometerVisibility
8:51 AM
Sun, Oct 23
48 °FPassing clouds.13 mph52%29.67 "Hg10 mi
7:51 AM46 °FBroken clouds.9 mph56%29.66 "Hg10 mi
6:51 AM47 °FPassing clouds.18 mph54%29.63 "Hg10 mi
5:51 AM47 °FMostly cloudy.12 mph61%29.60 "Hg10 mi
4:51 AM46 °FLight rain. Overcast.17 mph68%29.59 "Hg10 mi
3:51 AM47 °FMostly cloudy.20 mph66%29.55 "Hg10 mi
2:51 AM46 °FLight rain. Overcast.15 mph73%29.54 "Hg10 mi
1:51 AM45 °FLight rain. Overcast.14 mph80%29.53 "Hg10 mi
12:51 AM45 °FOvercast.14 mph76%29.52 "Hg10 mi
11:51 PM
Sat, Oct 22
45 °FPartly cloudy.14 mph74%29.51 "Hg10 mi
10:51 PM45 °FClear.20 mph65%29.48 "Hg10 mi
9:51 PM45 °FPassing clouds.18 mph68%29.46 "Hg10 mi
8:51 PM44 °FPassing clouds.16 mph71%29.44 "Hg10 mi
7:51 PM44 °FOvercast.16 mph71%29.41 "Hg10 mi
6:51 PM46 °FMostly cloudy.18 mph71%29.37 "Hg10 mi
5:51 PM47 °FPartly sunny.25 mph71%29.32 "Hg10 mi
4:51 PM49 °FCloudy.15 mph80%29.28 "Hg10 mi
3:51 PM52 °FOvercast.23 mph77%29.28 "Hg10 mi
2:51 PM56 °FMostly cloudy.10 mph77%29.24 "Hg10 mi
1:58 PM57 °FMostly cloudy.9 mph81%29.22 "Hg10 mi
12:51 PM57 °FLight rain. Broken clouds.12 mph87%29.22 "Hg10 mi
12:03 PM58 °FRain. Fog.9 mph90%29.22 "Hg2 mi
11:51 AM59 °FLight rain. Low clouds.9 mph87%29.22 "Hg9 mi
10:51 AM62 °FMostly cloudy.9 mph86%29.25 "Hg10 mi
Weather by CustomWeather, © 2016

See weather overviewHow to use our weather pages